Location: Suzhou
(31.3110°N, 120.6180°E)
Time: 20:42:16
(UTC+08:00)

FO-29 - Pass Details

Date: 23 April 2026
Orbit: 800 x 1320 km, 98.5° (Epoch: 11 May)

Event Time Altitude Azimuth Distance (km) Brightness Sun altitude
Rises 21:10:51 0° 358° (N) 4,103 13.3 -30.9°
Reaches altitude 10° 21:14:04 10° 347° (NNW) 3,057 12.7 -31.4°
Maximum altitude 21:19:28 25° 295° (WNW) 2,009 11.7 -32.2°
Drops below altitude 10° 21:24:24 10° 243° (WSW) 2,759 12.0 -33.0°
Sets 21:27:10 0° 230° (SW) 3,623 12.5 -33.4°
